Location: *
(43.9905°S, 176.4941°W)
Time: 23:47:50
(UTC+00:00)

Cosmos 2151 Rocket - Pass Details

Date: 08 December 2019
Orbit: 617 x 642 km, 82.5° (Epoch: 24 January)

Event Time Altitude Azimuth Distance (km) Brightness Sun altitude
Rises 07:51:02 0° 2° (N) 2,890 6.6 -5.6°
Reaches altitude 10° 07:53:15 10° 6° (N) 1,995 5.8 -5.9°
Maximum altitude 07:57:36 61° 85° (E) 721 3.7 -6.5°
Drops below altitude 10° 08:02:03 10° 165° (SSE) 2,037 6.6 -7.1°
Sets 08:04:21 0° 168° (SSE) 2,957 7.5 -7.4°
